User: anonymous   Login
Location: Oshawa
(43.9000°N, 78.8670°W)
Time: 02:23:05
(UTC-05:00)
Language:

Hubble Space Telescope - Orbit

View from above orbital plane
View from above orbital plane
View from above satellite
View from above satellite

Ground track
Ground track

The orbit data is extracted from the following two-line orbital elements,

1 20580U 90037B   14331.64992263  .00004445  00000-0  28375-3 0  1657
2 20580 028.4714 042.0471 0002717 228.5861 266.8407 15.06267569149385
Epoch (UTC): 27 November 2014 15:35:53
Eccentricity: 0.0002717
inclination: 28.4714°
perigee height: 546 km
apogee height: 549 km
right ascension of ascending node: 42.0471°
argument of perigee: 228.5861°
revolutions per day: 15.06267569
mean anomaly at epoch: 266.8407°
orbit number at epoch: 14938

The dashed part of the orbit path shows where the satellite is in the earth's shadow,  

DLR